Location: Unspecified
(0.0000°N, 0.0000°E)
Time: 01:32:38
(UTC+02:00)

Cosmos 1833 Rocket - Visible Passes

Search period start: 30 August 2015 00:00
Search period end: 09 September 2015 00:00
Orbit: 831 x 841 km, 71.0° (Epoch: 29 August)

Date Brightness Start Highest point End Pass type
(mag) Time Alt. Az. Time Alt. Az. Time Alt. Az.
30 Aug 2.5 21:20:08 10° N 21:25:42 74° ENE 21:28:58 26° SSE visible
31 Aug 2.6 21:03:32 10° N 21:09:04 66° ENE 21:14:38 10° SSE visible
01 Sep 2.7 20:46:57 10° N 20:52:26 58° ENE 20:57:57 10° SSE visible
02 Sep 2.8 20:30:24 10° N 20:35:48 52° ENE 20:41:15 10° SSE visible
03 Sep 5.8 07:33:22 10° SE 07:35:27 12° ESE 07:37:59 10° E visible
03 Sep 3.0 20:13:51 10° N 20:19:10 46° ENE 20:24:31 10° SSE visible
03 Sep 5.6 22:01:12 10° W 22:03:06 11° WSW 22:04:29 10° WSW visible
04 Sep 5.9 07:17:37 10° ESE 07:18:47 11° ESE 07:20:27 10° E visible
04 Sep 5.6 21:43:46 10° W 21:46:25 13° WSW 21:48:38 10° SW visible
05 Sep 5.5 21:26:34 10° WNW 21:29:45 15° WSW 21:32:33 10° SW visible
06 Sep 5.5 21:09:30 10° WNW 21:13:05 16° WSW 21:16:20 10° SW visible
07 Sep 5.4 20:52:29 10° WNW 20:56:25 19° WSW 21:00:04 10° SSW visible
08 Sep 5.4 20:35:32 10° WNW 20:39:45 21° WSW 20:43:44 10° SSW visible
